This is the latest recevied weather packets stored in our database for station/object K9JWM. If no packets are shown the sender has not sent any weather packets the latest 10 day(s).
| Time | Temp. | Humidity | Pressure | Rain* | Wind** | Luminosity | Snow |
|---|---|---|---|---|---|---|---|
| 1777588331 | 3.89° C | 64% | 1017.9 hPa | 0 mm | - | - | - |
| 1777587430 | 3.89° C | 62% | 1017.9 hPa | 0 mm | - | - | - |
| 1777586531 | 3.89° C | 64% | 1017.9 hPa | 0 mm | - | - | - |
| 1777585631 | 3.89° C | 61% | 1017.9 hPa | 0 mm | - | - | - |
| 1777584731 | 3.89° C | 62% | 1018 hPa | 0 mm | - | - | - |
| 1777583831 | 3.89° C | 63% | 1018 hPa | 0 mm | - | - | - |
| 1777582930 | 3.89° C | 64% | 1018 hPa | 0 mm | - | - | - |
| 1777582031 | 3.89° C | 65% | 1018 hPa | 0 mm | - | - | - |
| 1777581132 | 3.89° C | 63% | 1018 hPa | 0 mm | - | - | - |
| 1777580231 | 3.89° C | 61% | 1018.1 hPa | 0 mm | - | - | - |
| 1777579330 | 3.89° C | 64% | 1018.1 hPa | 0 mm | - | - | - |
| 1777578430 | 3.89° C | 64% | 1018.2 hPa | 0 mm | - | - | - |
| 1777577531 | 3.89° C | 64% | 1018.1 hPa | 0 mm | - | - | - |
| 1777576630 | 3.33° C | 65% | 1018.2 hPa | 0 mm | - | - | - |
| 1777575731 | 3.33° C | 67% | 1018.3 hPa | 0 mm | - | - | - |
| 1777574831 | 3.33° C | 69% | 1018.2 hPa | 0 mm | - | - | - |
| 1777573930 | 3.33° C | 68% | 1018.2 hPa | 0 mm | - | - | - |
| 1777573030 | 2.78° C | 70% | 1018.3 hPa | 0 mm | - | - | - |
| 1777572130 | 2.78° C | 71% | 1018.3 hPa | 0 mm | - | - | - |
| 1777571230 | 2.78° C | 74% | 1018.3 hPa | 0 mm | - | - | - |
| 1777570330 | 2.22° C | 76% | 1018.4 hPa | 0.25 mm | - | - | - |
| 1777569431 | 2.22° C | 82% | 1018.2 hPa | 0.25 mm | - | - | - |
| 1777568531 | 1.67° C | 87% | 1018.2 hPa | 0.25 mm | - | - | - |
| 1777567630 | 2.22° C | 82% | 1018.3 hPa | 0.25 mm | - | - | - |
| 1777566730 | 2.22° C | 83% | 1018.2 hPa | 0 mm | - | - | - |
* Rain latest hour (hover to see other rain measurements)
** Current wind speed in m/s (hover to see current wind gust speed)